Weather History for Pensacola, FL

Change the Weather History Date:

Thursday, April 25, 2013

  Actual Average Record
Temperature  
Mean Temperature 69 °F 69 °F  
Max Temperature 80 °F 78 °F 87 °F (1999)
Min Temperature 58 °F 60 °F 40 °F (1910)
Degree Days  
Heating Degree Days 0 1  
Month to date heating degree days 29 49  
Since 1 July heating degree days 1167 1533  
Cooling Degree Days 4 5  
Month to date cooling degree days 79 75  
Year to date cooling degree days 134 122  
Growing Degree Days 18 (Base 50)    
Moisture  
Dew Point 59 °F    
Average Humidity 70    
Maximum Humidity 97    
Minimum Humidity 42    
Precipitation  
Precipitation 0.00 in 0.13 in 3.40 in (1895)
Month to date precipitation 4.41 3.66  
Year to date precipitation 20.23 19.16  
Sea Level Pressure  
Sea Level Pressure 30.19 in    
Wind  
Wind Speed 8 mph (North)    
Max Wind Speed 15 mph    
Max Gust Speed 18 mph    
Visibility 6 miles    
Events Fog    
T = Trace of Precipitation, MM = Missing Value Source: NWS Daily Summary

Daily Weather History Graph

Daily Weather History Graph

Search for Another Location

Airport:

Trip Planner

Search our weather history database for the weather conditions in past years. The results will help you decide how hot, cold, wet, or windy it might be!

Date:

Astronomy

Apr. 25, 2013 Rise Set
Actual Time 6:10 AM CDT 7:23 PM CDT
Civil Twilight 5:45 AM CDT 7:48 PM CDT
Nautical Twilight 5:15 AM CDT 8:18 PM CDT
Astronomical Twilight 4:44 AM CDT 8:49 PM CDT
Moon 7:33 PM CDT (4/25) 5:53 AM CDT (4/25)
Length of Visible Light 14h 02m
Length of Day
13h 12m
Full, 100% of the Moon is Illuminated
Apr 25
Full
Apr 25
Full
May 2
Last Quarter
May 9
New
May 17
First Quarter

Hourly Weather History & Observations

Time (CDT) Temp. Dew Point Humidity Pressure Visibility Wind Dir Wind Speed Gust Speed Precip Events Conditions
12:02 AM 64.4 °F 64.4 °F 100% 30.14 in 1.5 mi Calm Calm - N/A   Clear
12:06 AM 64.4 °F 64.4 °F 100% 30.14 in 0.8 mi Calm Calm - N/A   Mist
12:20 AM 64.4 °F 64.4 °F 100% 30.14 in 1.0 mi Calm Calm - N/A   Clear
12:28 AM 66.2 °F 64.4 °F 94% 30.13 in 3.0 mi NE 3.5 mph - N/A   Clear
12:45 AM 66.2 °F 64.4 °F 94% 30.13 in 2.0 mi NE 3.5 mph - N/A   Partly Cloudy
12:48 AM 66.2 °F 64.4 °F 94% 30.13 in 1.0 mi NE 4.6 mph - N/A   Mist
12:53 AM 66.9 °F 64.9 °F 93% 30.14 in 0.5 mi NE 4.6 mph - N/A Fog Fog
1:00 AM 66.2 °F 64.4 °F 94% 30.13 in 0.2 mi ENE 4.6 mph - N/A Fog Fog
1:53 AM 66.0 °F 64.9 °F 96% 30.14 in 0.2 mi NNE 4.6 mph - N/A Fog Fog
2:02 AM 66.2 °F 64.4 °F 94% 30.12 in 0.5 mi NNE 5.8 mph - N/A Fog Fog
2:21 AM 64.4 °F 62.6 °F 94% 30.13 in 0.2 mi North 6.9 mph - N/A Fog Fog
2:26 AM 64.4 °F 62.6 °F 94% 30.13 in 0.2 mi North 6.9 mph - N/A Fog Fog
2:33 AM 64.4 °F 62.6 °F 94% 30.13 in 0.5 mi North 5.8 mph - N/A Fog Fog
2:53 AM 64.0 °F 63.0 °F 96% 30.14 in 0.5 mi North 8.1 mph - N/A Fog Fog
3:53 AM 62.1 °F 61.0 °F 96% 30.16 in 0.8 mi North 8.1 mph - N/A   Mist
4:11 AM 60.8 °F 60.8 °F 100% 30.15 in 2.0 mi North 9.2 mph - N/A   Overcast
4:19 AM 60.8 °F 60.8 °F 100% 30.15 in 5.0 mi North 9.2 mph - N/A   Overcast
4:34 AM 60.8 °F 60.8 °F 100% 30.16 in 2.5 mi North 9.2 mph - N/A   Overcast
4:46 AM 60.8 °F 60.8 °F 100% 30.16 in 1.5 mi North 5.8 mph - N/A   Overcast
4:53 AM 61.0 °F 59.0 °F 93% 30.17 in 1.2 mi North 6.9 mph - N/A   Overcast
5:30 AM 60.8 °F 59.0 °F 94% 30.17 in 3.0 mi North 8.1 mph - N/A   Overcast
5:53 AM 60.8 °F 57.2 °F 88% 30.17 in 5.0 mi North 11.5 mph - N/A   Overcast
6:40 AM 59.0 °F 55.4 °F 88% 30.20 in 10.0 mi North 9.2 mph - N/A   Overcast
6:53 AM 57.9 °F 55.9 °F 93% 30.21 in 10.0 mi North 10.4 mph - N/A   Overcast
7:53 AM 59.0 °F 55.9 °F 90% 30.23 in 10.0 mi North 10.4 mph - N/A   Overcast
8:53 AM 61.0 °F 55.9 °F 83% 30.26 in 10.0 mi North 9.2 mph - N/A   Overcast
9:53 AM 61.0 °F 55.0 °F 81% 30.28 in 10.0 mi North 15.0 mph - N/A   Overcast
10:19 AM 62.6 °F 55.4 °F 77% 30.26 in 10.0 mi North 10.4 mph - N/A   Overcast
10:53 AM 66.0 °F 57.0 °F 73% 30.27 in 10.0 mi North 8.1 mph 17.3 mph N/A   Scattered Clouds
11:05 AM 66.2 °F 57.2 °F 73% 30.27 in 10.0 mi North 12.7 mph - N/A   Mostly Cloudy
11:29 AM 69.8 °F 57.2 °F 64% 30.26 in 10.0 mi NNE 8.1 mph - N/A   Scattered Clouds
11:53 AM 70.0 °F 59.0 °F 68% 30.26 in 10.0 mi North 8.1 mph - N/A   Clear
12:53 PM 75.0 °F 61.0 °F 62% 30.25 in 10.0 mi North 4.6 mph - N/A   Clear
1:53 PM 75.9 °F 60.1 °F 58% 30.25 in 10.0 mi NNE 10.4 mph - N/A   Partly Cloudy
2:53 PM 78.1 °F 59.0 °F 52% 30.24 in 10.0 mi Calm Calm - N/A   Scattered Clouds
3:53 PM 79.0 °F 59.0 °F 50% 30.22 in 10.0 mi NNE 5.8 mph - N/A   Scattered Clouds
4:53 PM 79.0 °F 57.9 °F 48% 30.22 in 10.0 mi NNW 5.8 mph - N/A   Clear
5:53 PM 78.1 °F 54.0 °F 43% 30.21 in 10.0 mi North 8.1 mph - N/A   Clear
6:53 PM 75.0 °F 54.0 °F 48% 30.22 in 10.0 mi North 6.9 mph - N/A   Clear
7:53 PM 71.1 °F 51.1 °F 49% 30.23 in 10.0 mi North 8.1 mph - N/A   Clear
8:53 PM 69.1 °F 48.9 °F 49% 30.25 in 10.0 mi North 8.1 mph - N/A   Clear
9:53 PM 66.9 °F 46.9 °F 49% 30.27 in 10.0 mi NNE 6.9 mph - N/A   Clear
10:53 PM 66.0 °F 44.1 °F 45% 30.26 in 10.0 mi NNE 6.9 mph - N/A   Clear
11:53 PM 64.9 °F 42.1 °F 43% 30.26 in 10.0 mi NNE 6.9 mph - N/A   Clear